Probability
0 0 0 0 0 0 0 0 0 0 0 0 0 0 0 0 0 0 0 0 0 0 0 0 0 0 0 0 0 0 0 0 0 0 0 0 0 0 0 0 0 0 0
0 0 0 0 0 0 0 0 0 0 0 0 0 0 0 0 0 0 0 0 0 0 0 0 0 0 0 0 0 0 0 0 0 0 0 0 0 0 0 0 0 0 0
0 0 0 0 0 0 0 0 0 0 0 0 0 0 0 0 0 0 0 0 0 0 0 0 0 0 0 0 0 0 0 0 0 0 0 0 0 0 0 0 0 0 0
0 0 0 0 0 0 0 0 0 0 0 0 0 0 0 0 0 0 0 0 0 0 0 0 0 0 0 0 0 0 0 0 0 0 0 0 0 0 0 0 0 0 0
0 0 0 0 0 0 0 0 0 0 0 0 0 0 0 0 0 0 0 0 0 0 0 0 0 0 0 0 0 0 0 0 0 0 0 0 0 0 0 0 0 0 0
0 0 0 0 0 0 0 0 0 0 0 0 0 0 0 0 0 0 0 0 0 0 0 0 0 0 0 0 0 0 0 0 0 0 0 0 0 0 0 0 0 0 0
0 0 0 0 0 0 0 0 0 0 0 0 0 0 0 0 0 0 0 0 0 0 0 0 0 0 0 0 0 0 0 0 0 0 0 0 0 0 0 0 0 0 0
0 0 0 0 0 0 0 0 0 0 0 0 0 0 0 0 0 0 0 0 0 0 0 0 0 0 0 0 0 0 0 0 0 0 0 0 0 0 0 0 0 0 0
0 0 0 0 0 0 0 0 0 0 0 0 0 0 0 0 0 0 0 0 0 0 0 0 0 0 0 0 0 0 0 0 0 0 0 0 0 0 0 0 0 0 0
0 0 0 0 0 0 0 0 0 0 0 0 0 0 0 0 0 0 0 0 0 0 0 0 0 0 0 0 0 0 0 0 0 0 0 0 0 0 0 0 0 0 0
0 0 0 0 0 0 0 0 0 0 0 0 0 0 0 0 0 0 0 0 0 0 0 0 0 0 0 0 0 0 0 0 0 0 0 0 0 0 0 0 0 0 0
0 0 0 0 0 0 0 0 0 0 0 0 0 0 0 0 0 0 0 0 0 0 0 0 0 0 0 0 0 0 0 0 0 0 0 0 0 0 0 0 0 0 0
0 0 0 0 0 0 0 0 0 0 0 0 0 0 0 0 0 0 0 0 0 0 0 0 0 0 0 0 0 0 0 0 0 0 0 0 0 0 0 0 0 0 0
0 0 0 0 0 0 0 0 0 0 0 0 0 0 0 0 0 0 0 0 0 0 0 0 0 0 0 0 0 0 0 0 0 0 0 0 0 0 0 0 0 0 0
0 0 0 0 0 0 0 0 0 0 0 0 0 0 0 0 0 0 0 0 0 0 0 0 0 0 0 0 0 0 0 0 0 0 0 0 0 0 0 0 0 0 0
0 0 0 0 0 0 0 0 0 0 0 0 0 0 0 0 0 0 0 0 0 0 0 0 0 0 0 0 0 0 0 0 0 0 0 0 0 0 0 0 0 0 0
0 0 0 0 0 0 0 0 0 0 0 0 0 0 0 0 0 0 0 0 0 0 0 0 0 0 0 0 0 0 0 0 0 0 0 0 0 0 0 0 0 0 0
0 0 0 0 0 0 0 0 0 0 0 0 0 0 0 0 0 0 0 0 0 0 0 0 0 0 0 0 0 0 0 0 0 0 0 0 0 0 0 0 0 0 0
0 0 0 0 0 0 0 0 0 0 0 0 0 0 0 0 0 0 0 0 0 0 0 0 0 0 0 0 0 0 0 0 0 0 0 0 0 0 0 0 0 0 0
0 0 0 0 0 0 0 0 0 0 0 0 0 0 0 0 0 0 0 0 0 0 0 0 0 0 0 0 0 0 0 0 0 0 0 0 0 0 0 0 0 0 0
0 0 0 0 0 0 0 0 0 0 0 0 0 0 0 0 0 0 0 0 0 0 0 0 0 0 0 0 0 0 0 0 0 0 0 0 0 0 0 0 0 0 0
0 0 0 0 0 0 0 0 0 0 0 0 0 0 0 0 0 0 0 0 0 0 0 0 0 0 0 0 0 0 0 0 0 0 0 0 0 0 0 0 0 0 0
0 0 0 0 0 0 0 0 0 0 0 0 0 0 0 0 0 0 0 0 0 0 0 0 0 0 0 0 0 0 0 0 0 0 0 0 0 0 0 0 0 0 0
0 0 0 0 0 0 0 0 0 0 0 0 0 0 0 0 0 0 0 0 0 0 0 0 0 0 0 0 0 0 0 0 0 0 0 0 0 0 0 0 0 0 0
0 0 0 0 0 0 0 0 0 0 0 0 0 0 0 0 0 0 0 0 0 0 0 0 0 0 0 0 0 0 0 0 0 0 0 0 0 0 0 0 0 0 0
0 0 0 0 0 0 0 0 0 0 0 0 0 0 0 0 0 0 0 0 0 0 0 0 0 0 0 0 0 0 0 0 0 0 0 0 0 0 0 0 0 0 0
Height
5623 5623 5623 5623 5623 5623 5623 5623 5623 5623 5623 5622 5622 5621 5621 5620 5618 5617 5616 5615 5614 5613 5612 5611 5610 5609 5609 5608 5608 5607 5607 5607 5607 5608 5606 5605 5604 5604 5603 5603 5603 5602 5602
5614 5614 5614 5614 5614 5614 5613 5613 5612 5612 5612 5612 5611 5611 5610 5609 5608 5606 5605 5604 5603 5602 5601 5600 5599 5597 5597 5596 5596 5596 5596 5595 5595 5595 5595 5594 5594 5593 5593 5593 5592 5592 5591
5605 5605 5605 5605 5605 5604 5604 5603 5602 5602 5602 5601 5601 5600 5599 5598 5597 5596 5595 5593 5592 5591 5590 5588 5587 5586 5586 5585 5585 5585 5584 5584 5583 5583 5583 5583 5583 5583 5582 5582 5581 5581 5580
5595 5595 5595 5595 5595 5594 5594 5593 5593 5592 5592 5591 5591 5590 5589 5588 5586 5585 5584 5583 5581 5580 5578 5577 5577 5576 5575 5574 5574 5574 5573 5573 5572 5572 5572 5572 5572 5572 5572 5572 5571 5571 5570
5586 5586 5586 5586 5585 5585 5584 5584 5583 5583 5582 5581 5581 5580 5578 5577 5576 5574 5573 5572 5570 5568 5567 5566 5565 5565 5564 5564 5564 5563 5563 5562 5561 5561 5561 5561 5562 5562 5562 5562 5561 5561 5560
5576 5576 5576 5576 5576 5575 5575 5574 5573 5573 5572 5571 5570 5569 5568 5566 5565 5563 5562 5560 5558 5557 5555 5555 5554 5553 5553 5553 5552 5552 5552 5551 5551 5550 5551 5551 5552 5552 5552 5551 5551 5551 5552
5567 5567 5566 5566 5566 5565 5565 5564 5564 5563 5562 5561 5560 5559 5557 5555 5554 5552 5550 5549 5547 5545 5544 5543 5543 5542 5542 5541 5541 5541 5541 5540 5540 5541 5541 5542 5542 5542 5542 5542 5541 5541 5541
5558 5558 5557 5557 5557 5556 5555 5555 5554 5553 5552 5551 5550 5548 5546 5545 5543 5541 5539 5538 5536 5534 5533 5532 5531 5531 5531 5531 5531 5531 5531 5530 5530 5531 5532 5532 5532 5532 5532 5533 5532 5532 5531
5549 5548 5548 5547 5547 5546 5546 5545 5544 5543 5542 5541 5539 5538 5536 5534 5532 5531 5529 5527 5526 5524 5523 5522 5521 5521 5521 5520 5521 5521 5521 5521 5521 5521 5522 5522 5522 5522 5523 5523 5522 5522 5522
5539 5539 5538 5538 5538 5537 5536 5536 5534 5533 5532 5531 5529 5527 5526 5524 5522 5521 5519 5518 5516 5515 5514 5512 5511 5511 5510 5510 5511 5512 5512 5512 5512 5512 5512 5513 5513 5513 5513 5513 5513 5513 5513
5530 5530 5529 5528 5528 5527 5527 5526 5525 5524 5522 5521 5519 5518 5516 5514 5513 5511 5509 5508 5506 5505 5504 5503 5502 5501 5501 5501 5501 5502 5503 5503 5503 5503 5504 5504 5504 5505 5504 5504 5503 5503 5503
5521 5521 5520 5519 5519 5518 5517 5516 5515 5513 5512 5511 5509 5508 5506 5504 5503 5501 5499 5498 5496 5495 5495 5494 5493 5492 5492 5492 5492 5493 5494 5494 5494 5495 5495 5496 5496 5496 5496 5495 5495 5494 5494
5512 5512 5511 5510 5510 5509 5508 5506 5505 5503 5502 5501 5500 5498 5496 5495 5493 5491 5489 5488 5487 5486 5485 5485 5484 5483 5483 5483 5484 5484 5485 5485 5486 5486 5487 5488 5488 5487 5487 5487 5486 5486 5486
5503 5503 5502 5501 5501 5499 5498 5497 5495 5494 5493 5492 5490 5489 5487 5485 5484 5482 5481 5479 5478 5477 5476 5475 5475 5474 5475 5475 5476 5476 5477 5477 5478 5479 5479 5479 5479 5479 5479 5479 5479 5479 5479
5494 5494 5493 5492 5491 5490 5489 5488 5486 5485 5483 5482 5481 5479 5478 5477 5475 5474 5472 5471 5470 5469 5468 5467 5467 5467 5467 5468 5469 5469 5470 5470 5470 5471 5471 5471 5471 5471 5471 5471 5472 5471 5472
5486 5485 5484 5483 5482 5481 5480 5479 5477 5476 5475 5473 5471 5470 5469 5468 5466 5465 5464 5463 5462 5461 5460 5460 5460 5460 5461 5461 5462 5462 5463 5463 5464 5464 5464 5464 5464 5464 5465 5465 5464 5465 5464
5477 5476 5475 5474 5473 5472 5471 5470 5469 5468 5466 5465 5463 5462 5461 5460 5458 5457 5456 5456 5455 5454 5454 5454 5454 5454 5455 5455 5455 5456 5456 5457 5457 5457 5457 5458 5458 5458 5458 5458 5458 5458 5457
5468 5467 5466 5465 5464 5464 5463 5462 5461 5460 5459 5457 5456 5454 5453 5452 5451 5450 5449 5449 5448 5448 5448 5448 5448 5449 5449 5449 5450 5450 5450 5451 5451 5451 5451 5452 5452 5452 5452 5452 5451 5451 5451
5459 5459 5458 5457 5456 5456 5455 5454 5453 5452 5451 5449 5448 5447 5446 5445 5444 5443 5442 5442 5442 5442 5442 5442 5443 5443 5444 5444 5444 5444 5444 5445 5445 5445 5446 5446 5446 5446 5446 5445 5445 5445 5445
5451 5451 5450 5449 5449 5448 5447 5446 5445 5444 5443 5442 5441 5440 5439 5437 5437 5436 5436 5435 5436 5436 5436 5437 5437 5438 5438 5439 5439 5439 5439 5439 5440 5440 5440 5441 5441 5440 5440 5440 5440 5440 5440
5444 5443 5442 5442 5441 5440 5439 5438 5437 5436 5435 5434 5433 5432 5431 5431 5430 5430 5429 5430 5430 5431 5431 5431 5432 5433 5433 5433 5434 5434 5434 5435 5435 5435 5436 5436 5436 5435 5435 5435 5435 5435 5435
5436 5436 5435 5434 5433 5432 5431 5430 5429 5428 5427 5427 5426 5425 5424 5424 5423 5423 5423 5424 5425 5425 5426 5426 5427 5427 5428 5429 5429 5429 5430 5430 5430 5431 5431 5431 5431 5430 5430 5430 5430 5430 5430
5429 5428 5427 5427 5426 5425 5424 5423 5422 5421 5420 5420 5419 5418 5418 5417 5417 5417 5418 5418 5419 5420 5420 5421 5422 5422 5423 5423 5424 5424 5425 5425 5426 5426 5426 5426 5426 5425 5425 5425 5424 5424 5424
5421 5421 5420 5419 5419 5418 5417 5416 5414 5414 5413 5413 5412 5412 5412 5412 5412 5412 5412 5413 5413 5414 5415 5416 5417 5417 5418 5418 5419 5419 5420 5420 5421 5421 5421 5421 5421 5420 5420 5419 5419 5419 5419
5414 5413 5413 5412 5411 5410 5410 5409 5408 5407 5407 5406 5406 5406 5406 5406 5406 5406 5407 5407 5408 5409 5410 5410 5411 5412 5413 5413 5414 5414 5415 5415 5415 5416 5416 5416 5416 5415 5415 5414 5414 5414 5414
5407 5406 5406 5405 5404 5404 5403 5402 5401 5401 5400 5400 5400 5400 5400 5400 5401 5401 5402 5402 5403 5404 5404 5405 5406 5407 5407 5407 5408 5409 5409 5409 5410 5410 5410 5411 5411 5410 5410 5410 5409 5409 5409
Wind_Speed
33 34 34 35 35 36 37 38 38 39 39 39 40 40 40 40 40 40 41 41 41 41 42 43 43 43 44 44 45 45 44 44 43 42 42 42 42 42 41 41 41 40 40
33 33 34 34 34 35 35 36 37 38 39 39 39 39 39 39 40 39 39 40 40 40 41 42 43 43 43 43 43 43 43 43 42 42 41 40 40 40 40 40 39 39 39
33 33 34 34 34 35 35 35 36 36 37 37 38 38 38 38 38 38 38 39 40 40 41 41 40 40 41 42 42 41 42 42 41 41 40 39 38 38 38 38 37 37 37
33 33 34 34 33 34 35 35 35 35 35 36 37 37 37 38 38 38 39 39 39 40 39 40 39 40 40 40 41 41 41 41 40 40 39 38 37 37 36 36 36 35 36
33 34 34 34 34 34 34 35 35 35 36 36 36 37 37 38 38 38 38 39 39 39 39 39 39 39 40 40 40 40 40 39 39 38 37 37 36 35 35 34 34 34 34
34 34 34 34 34 34 34 34 35 35 35 36 36 37 37 37 38 38 38 39 39 38 38 38 39 40 40 40 39 39 38 37 36 36 36 35 34 34 34 33 33 33 33
33 33 33 33 33 33 33 33 34 35 35 35 35 36 37 37 37 38 38 37 37 38 38 38 39 39 38 38 38 38 37 37 35 35 34 33 33 33 32 32 32 32 32
32 32 31 32 32 32 32 32 33 34 34 34 35 35 36 36 36 36 35 35 35 36 36 36 36 36 36 36 36 36 35 34 34 33 33 33 33 32 32 31 31 31 32
32 32 31 32 32 32 32 33 33 33 34 34 34 35 35 34 34 34 34 33 33 34 34 34 34 34 34 34 34 34 33 32 33 33 32 31 30 30 31 31 31 31 31
32 32 32 32 32 32 32 33 33 34 35 34 34 34 33 33 33 34 34 33 33 33 32 32 32 32 32 33 33 32 31 32 32 32 32 31 30 30 30 31 30 30 30
31 31 31 32 32 32 32 33 34 35 35 34 33 33 33 33 33 33 33 33 32 32 31 31 31 31 31 31 31 31 30 31 31 32 32 31 31 30 30 31 30 30 29
31 31 31 31 31 31 32 33 33 34 34 33 32 32 32 32 32 32 33 32 32 31 30 30 29 29 30 30 30 30 29 29 30 30 30 29 29 30 30 30 30 29 28
31 30 31 31 31 31 32 32 32 32 32 32 32 32 32 32 31 31 31 31 31 30 29 29 28 28 29 29 29 28 28 28 28 28 28 29 29 29 29 28 28 27 27
31 31 31 31 31 31 31 31 31 32 32 32 31 31 30 30 29 29 29 29 28 28 27 27 27 26 26 26 26 26 26 26 27 27 28 28 28 28 28 27 27 27 27
30 30 30 30 30 30 31 31 31 31 31 31 31 30 29 28 28 27 27 26 26 26 26 25 24 24 23 24 25 25 25 25 25 25 26 26 26 26 26 26 26 26 26
30 29 30 30 30 29 29 28 28 29 29 29 28 28 27 26 26 25 25 25 24 23 22 22 21 21 21 22 22 22 22 22 23 23 24 24 24 24 24 24 24 24 23
29 29 29 29 29 28 28 28 27 27 27 27 26 25 25 24 24 23 23 23 23 22 21 20 19 19 19 20 20 21 21 21 21 22 22 22 22 22 22 23 23 22 22
28 28 29 28 27 27 27 26 26 26 26 25 25 24 24 24 23 22 22 22 21 20 20 19 18 18 18 18 19 19 20 20 21 21 21 21 21 21 21 21 20 20 20
27 27 27 26 26 26 26 26 25 25 25 25 24 24 24 24 23 22 21 20 20 19 18 18 17 17 18 18 18 18 18 18 19 19 19 19 20 20 20 20 19 19 19
26 25 25 25 25 25 25 25 24 24 24 24 23 23 23 23 22 21 20 19 19 18 17 17 17 17 17 17 17 17 16 17 17 17 17 18 18 18 18 18 19 19 18
24 24 24 24 24 24 24 24 24 24 23 23 22 22 22 21 20 20 19 18 17 17 17 17 17 17 16 16 16 16 16 16 16 17 17 17 18 17 17 17 18 18 17
23 23 23 23 23 23 23 24 23 23 22 21 21 21 20 19 19 18 18 17 17 17 16 16 17 17 17 16 16 16 16 16 17 17 17 17 17 17 17 17 18 18 17
23 23 22 23 23 23 23 23 23 22 22 21 20 20 19 19 18 18 17 17 17 17 16 16 16 17 17 16 16 16 16 17 17 17 17 16 17 17 17 17 17 17 16
23 23 23 23 23 22 22 22 22 21 20 20 19 18 18 18 18 18 17 17 17 16 16 16 16 16 16 16 16 16 16 16 16 17 17 17 17 17 17 17 17 16 15
22 22 22 22 22 22 21 21 20 20 20 19 18 18 18 18 18 17 17 16 16 16 16 16 16 15 15 16 16 16 16 16 16 16 16 16 16 15 15 15 15 15 15
21 21 21 21 20 20 20 19 19 19 19 19 18 18 17 17 16 16 16 16 16 16 16 16 15 15 15 15 16 16 16 16 16 15 15 15 15 15 15 15 15 15 15
Wind_Direction
269 268 268 269 271 271 271 271 271 272 273 274 274 275 277 278 279 279 279 278 278 276 274 273 273 273 274 274 273 273 274 275 276 275 276 274 273 273 274 274 273 272 273
269 269 269 270 271 272 272 272 272 273 273 274 274 276 277 278 279 279 280 280 279 278 275 273 273 274 274 273 273 273 274 275 276 276 276 275 273 273 273 273 273 272 273
270 270 270 271 272 273 272 273 273 274 274 274 274 276 276 277 278 279 279 280 279 279 277 275 274 274 274 274 273 273 274 275 276 277 276 274 274 273 273 274 274 273 273
270 271 271 272 273 273 273 273 273 274 275 275 276 277 277 277 278 279 279 279 280 278 277 275 274 273 274 274 274 274 275 275 276 277 275 273 274 274 274 274 273 274 273
271 272 272 272 272 273 273 273 273 275 276 277 278 278 278 278 278 279 280 280 280 278 276 275 274 274 274 274 274 275 276 276 276 276 274 273 274 274 273 272 272 273 274
271 272 272 272 272 274 274 275 275 276 277 278 279 279 280 279 280 280 281 280 280 278 276 274 274 273 274 273 273 275 276 276 276 275 272 272 273 273 273 272 272 273 273
273 273 272 272 272 274 275 275 275 277 278 279 280 280 280 281 281 282 282 282 282 279 277 275 274 273 272 272 272 273 274 274 274 273 271 271 271 272 272 271 272 273 273
273 273 273 272 273 274 275 276 277 278 280 281 282 281 282 282 282 282 283 284 284 281 279 278 276 274 272 272 271 272 273 272 272 272 271 270 270 270 270 271 271 273 272
273 273 273 273 274 275 275 275 277 279 281 282 283 283 282 282 282 282 283 285 284 283 282 280 278 274 273 273 272 272 272 271 271 272 271 269 269 269 270 271 272 273 271
273 273 273 274 274 275 276 276 277 279 281 282 283 283 282 281 282 282 283 284 284 283 282 281 279 276 273 272 273 272 272 271 269 270 270 269 269 270 271 272 272 272 270
272 273 274 274 275 276 277 277 278 280 282 283 284 284 283 282 283 283 284 283 283 282 281 281 278 276 274 273 273 272 272 271 268 269 269 269 269 270 272 273 273 273 271
273 273 274 276 276 276 278 279 280 281 282 282 283 283 284 283 283 284 285 284 284 282 281 280 278 276 275 274 272 271 271 270 268 267 268 269 270 271 272 272 273 272 271
272 274 275 276 278 278 279 280 280 280 280 281 283 283 284 283 283 285 285 284 283 282 281 280 278 276 275 274 272 271 270 269 268 267 268 270 270 271 271 271 271 271 272
273 275 277 278 278 279 280 281 279 279 280 281 282 283 283 283 282 284 285 285 283 280 279 280 278 277 275 273 271 270 270 269 268 268 269 270 269 268 269 270 270 270 270
275 277 278 279 279 280 280 280 280 279 281 281 282 283 283 282 281 281 282 283 284 282 280 280 278 275 273 271 271 271 271 270 269 270 270 270 268 267 268 268 269 270 269
276 278 279 280 280 280 279 279 279 280 281 281 283 283 283 282 281 281 282 282 284 284 283 280 277 276 273 272 271 271 271 270 271 271 270 269 269 267 267 268 270 270 271
276 278 280 280 279 279 279 278 278 280 282 283 284 284 283 283 283 283 281 280 281 282 283 281 275 274 273 273 272 272 271 270 270 269 268 268 269 269 269 269 271 269 269
276 279 280 278 277 279 279 279 279 280 282 284 284 284 284 284 285 284 282 280 280 280 281 278 274 273 273 274 274 273 270 270 269 267 266 266 267 269 270 269 269 269 269
278 280 278 277 277 278 278 279 280 281 283 284 283 283 283 284 284 283 282 280 277 277 277 273 272 274 275 275 275 274 271 270 268 266 266 268 270 271 271 269 267 267 270
279 278 278 277 277 278 279 280 282 283 284 285 284 283 282 281 281 281 280 278 274 272 272 269 270 274 275 274 275 274 273 271 269 266 266 268 271 274 272 269 267 267 270
278 278 277 277 278 281 282 282 283 284 285 285 284 282 281 280 279 279 278 274 271 269 269 268 269 270 272 273 272 271 272 272 271 267 267 269 270 272 272 269 267 267 269
278 278 278 279 280 282 284 284 284 284 283 283 282 280 278 277 277 275 273 269 269 268 267 267 269 271 271 271 271 269 270 270 268 266 266 268 270 272 273 272 271 270 270
279 278 279 281 281 282 284 283 282 281 280 279 278 277 274 272 272 271 269 266 267 267 267 268 270 270 271 270 269 268 269 268 267 266 265 267 269 270 273 274 275 272 270
280 278 278 279 280 282 282 282 280 278 277 276 275 273 272 270 270 270 269 267 268 268 269 270 270 271 272 270 268 268 268 268 268 268 269 270 270 271 273 274 274 271 268
280 277 277 278 279 280 281 280 278 276 276 274 271 270 269 269 269 270 270 268 268 268 270 270 270 271 272 269 267 267 267 267 268 269 271 271 270 269 269 272 276 275 272
281 279 276 276 277 279 280 279 277 276 275 272 270 269 268 267 267 267 267 267 267 269 270 270 271 271 273 272 270 268 266 265 267 269 271 270 267 267 268 270 275 277 276